When you browse on this site, cookies collect data to enhance your experience and personalize the content and advertising you see.
Visit our Privacy Policy to learn more. By continuing to use the site, you agree to this use of cookies and data.
  • En España
  • Lista de países
  • Para 7 días
  • Temperatura del agua
  • El tiempo en el mapa
  • Informadores
  • user-avatar
    Iniciar sesión

    Tiempo cada hora Ulsan

    Hoy, 25 Mayo, Lunes

    Tiempo Temperatura Precipitaciones Viento Presión Humedad
    00:00 +18°C° 0 mm 2 mps 749 mmHg 89%
    01:00 +19°C° 0 mm 1 mps 748 mmHg 90%
    02:00 +18°C° 0 mm 1 mps 748 mmHg 90%
    03:00 +18°C° 0 mm 1 mps 748 mmHg 91%
    04:00 +18°C° 0 mm 1 mps 748 mmHg 89%
    05:00 +18°C° 0 mm 1 mps 748 mmHg 88%
    06:00 +18°C° 0 mm 1 mps 749 mmHg 87%
    07:00 +20°C° 0 mm 1 mps 749 mmHg 79%
    08:00 +22°C° 0 mm 1 mps 748 mmHg 71%
    09:00 +21°C° 0 mm 0 mps 749 mmHg 60%
    10:00 +24°C° 0 mm 1 mps 749 mmHg 57%
    11:00 +25°C° 0 mm 1 mps 749 mmHg 53%
    12:00 +26°C° 0 mm 2 mps 749 mmHg 50%
    13:00 +26°C° 0 mm 2 mps 748 mmHg 51%
    14:00 +25°C° 0 mm 2 mps 748 mmHg 52%
    15:00 +25°C° 0 mm 2 mps 748 mmHg 54%
    16:00 +24°C° 0 mm 2 mps 748 mmHg 58%
    17:00 +24°C° 0 mm 2 mps 748 mmHg 62%
    18:00 +23°C° 0 mm 2 mps 748 mmHg 66%
    19:00 +22°C° 0 mm 1 mps 748 mmHg 70%
    20:00 +20°C° 0 mm 1 mps 748 mmHg 73%
    21:00 +19°C° 0 mm 1 mps 748 mmHg 73%
    22:00 +19°C° 0 mm 1 mps 748 mmHg 71%
    23:00 +19°C° 0 mm 1 mps 748 mmHg 69%

    Mañana, 26 Mayo, Martes

    Tiempo Temperatura Precipitaciones Viento Presión Humedad
    00:00 +19°C° 0 mm 1 mps 748 mmHg 68%
    01:00 +19°C° 0 mm 1 mps 748 mmHg 67%
    02:00 +19°C° 0 mm 1 mps 747 mmHg 67%
    03:00 +18°C° 0 mm 1 mps 747 mmHg 67%
    04:00 +19°C° 0 mm 1 mps 747 mmHg 67%
    05:00 +19°C° 0 mm 1 mps 747 mmHg 67%
    06:00 +19°C° 0 mm 1 mps 747 mmHg 67%
    07:00 +20°C° 0 mm 1 mps 747 mmHg 63%
    08:00 +19°C° 0 mm 0 mps 747 mmHg 60%
    09:00 +21°C° 0 mm 0 mps 747 mmHg 56%
    10:00 +24°C° 0 mm 1 mps 747 mmHg 52%
    11:00 +25°C° 0 mm 2 mps 747 mmHg 48%
    12:00 +26°C° 0 mm 2 mps 747 mmHg 44%
    13:00 +26°C° 0 mm 3 mps 746 mmHg 45%
    14:00 +26°C° 0 mm 4 mps 746 mmHg 45%
    15:00 +26°C° 0 mm 5 mps 745 mmHg 46%
    16:00 +26°C° 0 mm 5 mps 745 mmHg 50%
    17:00 +25°C° 0 mm 5 mps 745 mmHg 53%
    18:00 +23°C° 0 mm 5 mps 745 mmHg 57%
    19:00 +22°C° 0 mm 4 mps 745 mmHg 61%
    20:00 +21°C° 0 mm 4 mps 745 mmHg 64%
    21:00 +19°C° 0 mm 3 mps 745 mmHg 68%
    22:00 +19°C° 0 mm 3 mps 746 mmHg 69%
    23:00 +18°C° 0 mm 3 mps 746 mmHg 70%

    Pasado mañana, 27 Mayo, Miércoles

    Tiempo Temperatura Precipitaciones Viento Presión Humedad
    00:00 +18°C° 0 mm 2 mps 746 mmHg 71%
    01:00 +17°C° 0 mm 2 mps 746 mmHg 73%
    02:00 +18°C° 0 mm 1 mps 746 mmHg 74%
    03:00 +18°C° 0 mm 1 mps 745 mmHg 76%
    04:00 +16°C° 0 mm 1 mps 746 mmHg 77%
    05:00 +16°C° 0 mm 1 mps 746 mmHg 79%
    06:00 +16°C° 0 mm 1 mps 746 mmHg 80%
    07:00 +19°C° 0 mm 1 mps 746 mmHg 71%
    08:00 +20°C° 0 mm 2 mps 747 mmHg 62%
    09:00 +21°C° 0 mm 2 mps 747 mmHg 53%
    10:00 +24°C° 0 mm 2 mps 747 mmHg 48%
    11:00 +25°C° 0 mm 2 mps 747 mmHg 44%
    12:00 +26°C° 0 mm 3 mps 747 mmHg 39%
    13:00 +26°C° 0 mm 3 mps 747 mmHg 40%
    14:00 +26°C° 0 mm 3 mps 746 mmHg 41%
    15:00 +26°C° 0 mm 3 mps 746 mmHg 42%
    16:00 +25°C° 0 mm 3 mps 746 mmHg 46%
    17:00 +24°C° 0 mm 3 mps 746 mmHg 50%
    18:00 +22°C° 0 mm 3 mps 746 mmHg 55%
    19:00 +21°C° 0 mm 3 mps 746 mmHg 60%
    20:00 +19°C° 0 mm 2 mps 747 mmHg 66%
    21:00 +17°C° 0 mm 2 mps 747 mmHg 71%
    22:00 +17°C° 0 mm 2 mps 747 mmHg 72%
    23:00 +17°C° 0 mm 2 mps 747 mmHg 74%

    28 Mayo, Jueves

    Tiempo Temperatura Precipitaciones Viento Presión Humedad
    00:00 +16°C° 0 mm 2 mps 747 mmHg 75%
    01:00 +16°C° 0 mm 2 mps 747 mmHg 74%
    02:00 +16°C° 0 mm 1 mps 747 mmHg 74%
    03:00 +16°C° 0 mm 1 mps 747 mmHg 73%
    04:00 +16°C° 0 mm 1 mps 747 mmHg 72%
    05:00 +16°C° 0 mm 1 mps 747 mmHg 71%
    06:00 +16°C° 0 mm 1 mps 747 mmHg 70%
    07:00 +19°C° 0 mm 1 mps 747 mmHg 63%
    08:00 +22°C° 0 mm 1 mps 747 mmHg 56%
    09:00 +24°C° 0 mm 1 mps 747 mmHg 49%
    10:00 +25°C° 0 mm 1 mps 747 mmHg 45%
    11:00 +26°C° 0 mm 2 mps 747 mmHg 40%
    12:00 +27°C° 0 mm 2 mps 747 mmHg 36%
    13:00 +27°C° 0 mm 3 mps 747 mmHg 38%
    14:00 +27°C° 0 mm 3 mps 747 mmHg 39%
    15:00 +27°C° 0 mm 3 mps 746 mmHg 40%
    16:00 +26°C° 0 mm 4 mps 746 mmHg 45%
    17:00 +23°C° 0 mm 4 mps 746 mmHg 49%
    18:00 +22°C° 0 mm 4 mps 746 mmHg 54%
    19:00 +21°C° 0 mm 3 mps 747 mmHg 61%
    20:00 +19°C° 0 mm 3 mps 747 mmHg 69%
    21:00 +18°C° 0 mm 3 mps 748 mmHg 76%
    22:00 +17°C° 0 mm 2 mps 748 mmHg 77%
    23:00 +17°C° 0 mm 2 mps 748 mmHg 78%

    29 Mayo, Viernes

    Tiempo Temperatura Precipitaciones Viento Presión Humedad
    00:00 +16°C° 0 mm 2 mps 748 mmHg 79%
    01:00 +16°C° 0 mm 2 mps 748 mmHg 79%
    02:00 +16°C° 0 mm 2 mps 748 mmHg 79%
    03:00 +16°C° 0 mm 1 mps 749 mmHg 79%
    04:00 +16°C° 0 mm 1 mps 749 mmHg 80%
    05:00 +16°C° 0 mm 1 mps 749 mmHg 80%
    06:00 +16°C° 0 mm 1 mps 749 mmHg 81%
    07:00 +19°C° 0 mm 1 mps 750 mmHg 72%
    08:00 +21°C° 0 mm 1 mps 750 mmHg 64%
    09:00 +24°C° 0 mm 1 mps 751 mmHg 55%
    10:00 +24°C° 0 mm 2 mps 751 mmHg 51%
    11:00 +25°C° 0 mm 2 mps 751 mmHg 48%
    12:00 +26°C° 0 mm 2 mps 751 mmHg 45%
    13:00 +26°C° 0 mm 3 mps 751 mmHg 46%
    14:00 +25°C° 0 mm 3 mps 751 mmHg 47%
    15:00 +25°C° 0 mm 3 mps 751 mmHg 48%
    16:00 +24°C° 0 mm 3 mps 751 mmHg 52%
    17:00 +23°C° 0 mm 2 mps 751 mmHg 56%
    18:00 +22°C° 0 mm 1 mps 751 mmHg 60%
    19:00 +21°C° 0 mm 1 mps 752 mmHg 63%
    20:00 +20°C° 0 mm 1 mps 752 mmHg 66%
    21:00 +18°C° 0 mm 1 mps 753 mmHg 69%
    22:00 +18°C° 0 mm 1 mps 753 mmHg 68%
    23:00 +18°C° 0 mm 1 mps 753 mmHg 68%

    30 Mayo, Sábado

    Tiempo Temperatura Precipitaciones Viento Presión Humedad
    00:00 +18°C° 0 mm 1 mps 753 mmHg 67%
    01:00 +18°C° 0 mm 1 mps 753 mmHg 67%
    02:00 +18°C° 0 mm 1 mps 753 mmHg 66%
    03:00 +18°C° 0 mm 1 mps 753 mmHg 66%
    04:00 +18°C° 0 mm 1 mps 753 mmHg 66%
    05:00 +18°C° 0 mm 1 mps 753 mmHg 67%
    06:00 +18°C° 0 mm 1 mps 753 mmHg 67%
    07:00 +20°C° 0 mm 1 mps 753 mmHg 61%
    08:00 +21°C° 0 mm 1 mps 754 mmHg 56%
    09:00 +23°C° 0 mm 1 mps 754 mmHg 50%
    10:00 +23°C° 0 mm 2 mps 753 mmHg 48%
    11:00 +23°C° 0 mm 2 mps 753 mmHg 46%
    12:00 +24°C° 0 mm 2 mps 753 mmHg 44%
    13:00 +24°C° 0 mm 2 mps 753 mmHg 45%
    14:00 +24°C° 0 mm 2 mps 753 mmHg 46%
    15:00 +25°C° 0 mm 2 mps 753 mmHg 47%
    16:00 +24°C° 0 mm 2 mps 753 mmHg 52%
    17:00 +24°C° 0 mm 2 mps 753 mmHg 57%
    18:00 +23°C° 0 mm 2 mps 753 mmHg 62%
    19:00 +21°C° 0 mm 2 mps 753 mmHg 67%
    20:00 +20°C° 0 mm 3 mps 753 mmHg 73%
    21:00 +19°C° 0 mm 3 mps 754 mmHg 78%
    22:00 +19°C° 0 mm 3 mps 754 mmHg 77%
    23:00 +19°C° 0 mm 3 mps 754 mmHg 75%
    Mostrar más